DW8343 Weather Reports


Display with metric or nautical units.
time (UTC)temp
F
wind
direction
speed
MPH
gust
MPH
rain 1hr
in
rain 24hr
in
rain mn
in
humidity
%
barometer
mb
20260904000918 91 305 2.0 6.0 0.00 0.00 0.00 54 1012.5
20260904000418 91 232 2.0 6.0 0.00 0.00 0.00 54 1012.5
20260903235913 91 59 3.0 6.0 0.00 0.00 0.00 54 1012.3
20260903235409 92 63 5.0 9.0 0.00 0.00 0.00 53 1012.6
20260903234908 92 87 1.0 3.0 0.00 0.00 0.00 53 1012.5
20260903234404 92 155 2.0 7.0 0.00 0.00 0.00 53 1012.3
20260903233900 92 43 4.0 7.0 0.00 0.00 0.00 53 1012.3
20260903233356 92 243 2.0 8.0 0.00 0.00 0.00 53 1012.3
20260903232855 92 275 2.0 9.0 0.00 0.00 0.00 52 1012.3
20260903232351 93 118 3.0 6.0 0.00 0.00 0.00 52 1012.3
20260903231850 93 44 2.0 7.0 0.00 0.00 0.00 52 1012.1
20260903231345 93 260 1.0 7.0 0.00 0.00 0.00 52 1012.2
20260903230841 93 270 2.0 7.0 0.00 0.00 0.00 52 1012.0
20260903230336 93 143 3.0 13.0 0.00 0.00 0.00 52 1012.0
20260903225833 93 350 2.0 11.0 0.00 0.00 0.00 51 1011.9
20260903225328 94 91 6.0 10.0 0.00 0.00 0.00 51 1012.1
20260903224824 94 36 3.0 8.0 0.00 0.00 0.00 52 1012.1
20260903224320 94 26 2.0 4.0 0.00 0.00 0.00 50 1012.1
20260903223816 94 12 1.0 3.0 0.00 0.00 0.00 50 1012.0
20260903223314 94 102 1.0 6.0 0.00 0.00 0.00 50 1011.9
20260903222809 95 138 1.0 6.0 0.00 0.00 0.00 49 1012.1
20260903222308 95 63 0.0 3.0 0.00 0.00 0.00 49 1012.1
20260903221803 95 240 4.0 6.0 0.00 0.00 0.00 48 1012.1
20260903221303 95 49 4.0 7.0 0.00 0.00 0.00 49 1012.0
20260903220800 95 45 1.0 3.0 0.00 0.00 0.00 48 1012.1
20260903220255 95 308 2.0 8.0 0.00 0.00 0.00 49 1012.2
20260903215753 95 51 1.0 6.0 0.00 0.00 0.00 50 1012.3
20260903215250 94 277 2.0 6.0 0.00 0.00 0.00 49 1012.4
20260903214748 95 21 4.0 11.0 0.00 0.00 0.00 49 1012.5
20260903214244 97 223 3.0 7.0 0.00 0.00 0.00 46 1012.3
20260903213738 96 22 2.0 4.0 0.00 0.00 0.00 48 1012.2
20260903213234 96 53 2.0 7.0 0.00 0.00 0.00 49 1012.3
20260903212729 96 311 1.0 6.0 0.00 0.00 0.00 48 1012.6
20260903212226 96 51 2.0 10.0 0.00 0.00 0.00 48 1012.3
20260903211719 96 250 4.0 6.0 0.00 0.00 0.00 48 1012.5
20260903211216 96 42 2.0 7.0 0.00 0.00 0.00 48 1012.4
20260903210712 97 282 2.0 3.0 0.00 0.00 0.00 46 1012.5
20260903210207 96 44 6.0 11.0 0.00 0.00 0.00 47 1012.4
20260903205707 96 17 2.0 4.0 0.00 0.00 0.00 47 1012.6
20260903205206 97 42 2.0 8.0 0.00 0.00 0.00 48 1012.7
20260903204702 96 136 2.0 7.0 0.00 0.00 0.00 47 1012.7
20260903204158 97 65 5.0 11.0 0.00 0.00 0.00 48 1013.0
20260903203653 97 25 2.0 7.0 0.00 0.00 0.00 48 1012.7
20260903203148 95 234 1.0 7.0 0.00 0.00 0.00 50 1012.7
20260903202643 97 78 4.0 6.0 0.00 0.00 0.00 47 1013.0
20260903202138 96 186 2.0 7.0 0.00 0.00 0.00 48 1013.0
20260903201632 97 11 3.0 8.0 0.00 0.00 0.00 47 1013.2
20260903201132 97 46 4.0 10.0 0.00 0.00 0.00 49 1013.1
20260903200628 97 338 1.0 3.0 0.00 0.00 0.00 49 1013.2
20260903200122 96 314 1.0 4.0 0.00 0.00 0.00 48 1013.2
20260903195618 98 67 2.0 7.0 0.00 0.00 0.00 47 1013.3
20260903195113 97 344 2.0 6.0 0.00 0.00 0.00 47 1013.2
20260903194608 98 8 1.0 6.0 0.00 0.00 0.00 45 1013.2
20260903194103 98 270 3.0 6.0 0.00 0.00 0.00 45 1013.2
20260903193559 97 97 1.0 6.0 0.00 0.00 0.00 46 1013.3
20260903193054 98 253 2.0 3.0 0.00 0.00 0.00 45 1013.3
20260903192551 96 317 1.0 4.0 0.00 0.00 0.00 47 1013.4
20260903192046 97 54 1.0 4.0 0.00 0.00 0.00 49 1013.5
20260903191537 96 286 2.0 9.0 0.00 0.00 0.00 50 1013.4
20260903191037 96 11 3.0 6.0 0.00 0.00 0.00 48 1013.5
20260903190536 95 40 3.0 6.0 0.00 0.00 0.00 49 1013.7
20260903190030 97 71 2.0 4.0 0.00 0.00 0.00 48 1013.7
20260903185526 96 254 2.0 4.0 0.00 0.00 0.00 48 1013.8
20260903185021 95 353 3.0 4.0 0.00 0.00 0.00 50 1013.9
20260903184518 96 0 2.0 7.0 0.00 0.00 0.00 49 1014.0
20260903184017 94 227 3.0 7.0 0.00 0.00 0.00 50 1014.2
20260903183516 94 227 3.0 7.0 0.00 0.00 0.00 50 1014.2
20260903183012 94 14 1.0 6.0 0.00 0.00 0.00 53 1014.2
20260903182510 94 256 1.0 4.0 0.00 0.00 0.00 54 1014.4
20260903182007 95 269 2.0 7.0 0.00 0.00 0.00 49 1014.3
20260903181500 94 227 1.0 6.0 0.00 0.00 0.00 52 1014.4
20260903180959 94 25 3.0 4.0 0.00 0.00 0.00 52 1014.5
20260903180455 93 113 4.0 7.0 0.00 0.00 0.00 52 1014.5
20260903175954 93 55 3.0 8.0 0.00 0.00 0.00 53 1014.5
20260903175448 94 276 2.0 7.0 0.00 0.00 0.00 53 1014.5
20260903174947 93 29 2.0 6.0 0.00 0.00 0.00 54 1014.7
20260903174443 92 115 2.0 6.0 0.00 0.00 0.00 54 1014.7
20260903173942 92 44 4.0 8.0 0.00 0.00 0.00 56 1014.8
20260903173438 93 232 1.0 6.0 0.00 0.00 0.00 55 1014.9
20260903172933 92 71 2.0 9.0 0.00 0.00 0.00 54 1015.0
20260903172428 92 69 3.0 4.0 0.00 0.00 0.00 55 1015.0
20260903171924 92 60 2.0 3.0 0.00 0.00 0.00 55 1014.9
20260903171419 91 223 3.0 4.0 0.00 0.00 0.00 55 1014.9
20260903170919 91 351 1.0 7.0 0.00 0.00 0.00 58 1015.1
20260903170413 92 225 5.0 7.0 0.00 0.00 0.00 55 1015.2
20260903165912 91 75 2.0 7.0 0.00 0.00 0.00 59 1015.2
20260903165407 90 72 2.0 4.0 0.00 0.00 0.00 57 1015.2
20260903164902 92 202 2.0 4.0 0.00 0.00 0.00 56 1015.3
20260903164402 90 342 1.0 3.0 0.00 0.00 0.00 57 1015.3
20260903163901 89 336 1.0 7.0 0.00 0.00 0.00 60 1015.3
20260903163358 90 221 1.0 3.0 0.00 0.00 0.00 58 1015.4
20260903162853 90 271 1.0 2.0 0.00 0.00 0.00 58 1015.5
20260903162350 90 189 1.0 7.0 0.00 0.00 0.00 60 1015.6
20260903161845 89 275 1.0 4.0 0.00 0.00 0.00 60 1015.3
20260903161340 89 332 2.0 4.0 0.00 0.00 0.00 61 1015.5
20260903160836 88 46 1.0 4.0 0.00 0.00 0.00 63 1015.4
20260903160335 87 22 3.0 6.0 0.00 0.00 0.00 64 1015.4
20260903155833 88 274 2.0 4.0 0.00 0.00 0.00 62 1015.3
20260903155329 87 35 2.0 6.0 0.00 0.00 0.00 64 1015.5
20260903154824 87 294 2.0 3.0 0.00 0.00 0.00 65 1015.4
20260903154320 86 53 2.0 8.0 0.00 0.00 0.00 66 1015.4
20260903153816 86 185 2.0 6.0 0.00 0.00 0.00 66 1015.3
20260903153311 85 225 1.0 6.0 0.00 0.00 0.00 66 1015.5
20260903152809 85 42 3.0 6.0 0.00 0.00 0.00 68 1015.5
20260903152306 85 34 2.0 4.0 0.00 0.00 0.00 68 1015.6
20260903151803 84 60 5.0 8.0 0.00 0.00 0.00 68 1015.7
20260903151254 85 241 1.0 4.0 0.00 0.00 0.00 68 1015.8
20260903150753 86 240 2.0 3.0 0.00 0.00 0.00 66 1015.6
20260903150248 84 69 2.0 3.0 0.00 0.00 0.00 69 1015.8
20260903145744 84 309 0.0 3.0 0.00 0.00 0.00 70 1015.8
20260903145239 84 195 2.0 9.0 0.00 0.00 0.00 70 1015.9
20260903144737 83 277 2.0 4.0 0.00 0.00 0.00 70 1016.1
20260903144233 83 32 2.0 7.0 0.00 0.00 0.00 71 1015.8
20260903143729 82 59 1.0 8.0 0.00 0.00 0.00 72 1016.2
20260903143225 82 171 1.0 4.0 0.00 0.00 0.00 73 1016.1
20260903142720 82 287 5.0 10.0 0.00 0.00 0.00 73 1016.1
20260903142217 82 102 5.0 8.0 0.00 0.00 0.00 73 1016.2
20260903141712 82 325 4.0 11.0 0.00 0.00 0.00 74 1016.2
20260903141208 82 34 1.0 4.0 0.00 0.00 0.00 73 1016.2
20260903140703 81 262 4.0 6.0 0.00 0.00 0.00 75 1016.4
20260903140158 80 270 4.0 7.0 0.00 0.00 0.00 75 1016.5
20260903135653 80 14 2.0 7.0 0.00 0.00 0.00 76 1016.5
20260903135148 80 250 3.0 8.0 0.00 0.00 0.00 75 1016.5
20260903134646 80 66 2.0 4.0 0.00 0.00 0.00 75 1016.5
20260903134137 80 84 1.0 6.0 0.00 0.00 0.00 76 1016.2
20260903133635 79 224 2.0 7.0 0.00 0.00 0.00 76 1016.3
20260903133130 80 296 1.0 6.0 0.00 0.00 0.00 76 1016.6
20260903132624 79 188 2.0 2.0 0.00 0.00 0.00 76 1016.4
20260903132120 79 128 0.0 3.0 0.00 0.00 0.00 77 1016.3
20260903131619 78 124 2.0 4.0 0.00 0.00 0.00 78 1016.2
20260903131118 78 134 0.0 3.0 0.00 0.00 0.00 79 1016.2
20260903130616 77 258 0.0 3.0 0.00 0.00 0.00 79 1016.3
20260903130109 77 272 0.0 6.0 0.00 0.00 0.00 79 1016.1
20260903125607 77 198 2.0 4.0 0.00 0.00 0.00 79 1015.9
20260903125102 77 241 1.0 6.0 0.00 0.00 0.00 79 1016.1
20260903124556 77 282 1.0 4.0 0.00 0.00 0.00 79 1016.2
20260903124057 77 249 1.0 4.0 0.00 0.00 0.00 79 1015.9
20260903123556 77 169 3.0 4.0 0.00 0.00 0.00 79 1015.8
20260903123054 77 305 3.0 4.0 0.00 0.00 0.00 79 1015.8
20260903122549 77 21 2.0 3.0 0.00 0.00 0.00 79 1015.8
20260903122048 77 110 2.0 6.0 0.00 0.00 0.00 79 1015.6
20260903121543 77 49 2.0 2.0 0.00 0.00 0.00 79 1015.7
20260903121039 77 263 2.0 3.0 0.00 0.00 0.00 78 1015.4
20260903120538 77 204 3.0 3.0 0.00 0.00 0.00 78 1015.6
20260903120033 77 343 0.0 3.0 0.00 0.00 0.00 78 1015.3
20260903115531 77 243 2.0 6.0 0.00 0.00 0.00 78 1015.4
20260903115026 77 224 3.0 6.0 0.00 0.00 0.00 78 1015.5
20260903114521 77 286 0.0 1.0 0.00 0.00 0.00 78 1015.4
20260903114017 77 240 1.0 2.0 0.00 0.00 0.00 77 1015.3
20260903113512 78 193 0.0 3.0 0.00 0.00 0.00 77 1015.2
20260903113009 78 337 1.0 3.0 0.00 0.00 0.00 76 1015.1
20260903112504 78 135 3.0 6.0 0.00 0.00 0.00 76 1015.1
20260903112003 78 306 2.0 4.0 0.00 0.00 0.00 76 1015.3
20260903111457 78 276 1.0 6.0 0.00 0.00 0.00 76 1015.1
20260903110954 78 77 2.0 4.0 0.00 0.00 0.00 76 1015.2
20260903110449 78 270 0.0 2.0 0.00 0.00 0.00 76 1015.1
20260903105943 78 240 0.0 2.0 0.00 0.00 0.00 76 1015.1
20260903105439 78 207 0.0 3.0 0.00 0.00 0.00 75 1015.0
20260903104938 78 270 4.0 8.0 0.00 0.00 0.00 75 1015.2
20260903104438 78 233 1.0 2.0 0.00 0.00 0.00 75 1015.2
20260903103935 79 260 1.0 4.0 0.00 0.00 0.00 75 1015.0
20260903103430 79 261 1.0 2.0 0.00 0.00 0.00 74 1015.0
20260903102926 79 291 2.0 3.0 0.00 0.00 0.00 74 1014.9
20260903102421 79 264 1.0 3.0 0.00 0.00 0.00 74 1015.0
20260903101920 79 152 2.0 4.0 0.00 0.00 0.00 73 1015.0
20260903101415 79 113 2.0 3.0 0.00 0.00 0.00 73 1015.1
20260903100910 79 60 2.0 4.0 0.00 0.00 0.00 73 1015.1
20260903100405 79 43 1.0 6.0 0.00 0.00 0.00 73 1015.1
20260903095902 80 111 1.0 2.0 0.00 0.00 0.00 73 1015.1
20260903095356 80 42 3.0 6.0 0.00 0.00 0.00 72 1015.0
20260903094851 80 279 2.0 2.0 0.00 0.00 0.00 72 1014.9
20260903094346 80 298 0.0 3.0 0.00 0.00 0.00 72 1014.9
20260903093842 80 291 1.0 2.0 0.00 0.00 0.00 72 1015.0
20260903093337 80 351 1.0 1.0 0.00 0.00 0.00 71 1015.0
20260903092832 80 181 1.0 3.0 0.00 0.00 0.00 71 1015.1
20260903092326 81 263 3.0 4.0 0.00 0.00 0.00 70 1015.1
20260903091825 81 251 2.0 6.0 0.00 0.00 0.00 70 1014.9
20260903091319 81 86 3.0 7.0 0.00 0.00 0.00 69 1014.9
20260903090815 81 48 2.0 3.0 0.00 0.00 0.00 69 1015.0
20260903090315 81 272 3.0 4.0 0.00 0.00 0.00 69 1015.2
20260903085813 82 98 1.0 4.0 0.00 0.00 0.00 68 1015.1
20260903085308 82 161 2.0 3.0 0.00 0.00 0.00 68 1015.1
20260903084806 82 249 1.0 4.0 0.00 0.00 0.00 68 1015.0
20260903084300 82 48 1.0 7.0 0.00 0.00 0.00 68 1015.1
20260903083755 82 201 0.0 2.0 0.00 0.00 0.00 68 1015.1
20260903083250 82 234 1.0 7.0 0.00 0.00 0.00 67 1015.0
20260903082749 82 69 1.0 3.0 0.00 0.00 0.00 67 1015.2
20260903082245 82 50 3.0 7.0 0.00 0.00 0.00 67 1015.1
20260903081745 82 25 4.0 6.0 0.00 0.00 0.00 66 1015.3
20260903081241 82 169 1.0 3.0 0.00 0.00 0.00 66 1015.2
20260903080737 82 75 1.0 2.0 0.00 0.00 0.00 66 1015.1
20260903080234 82 174 2.0 2.0 0.00 0.00 0.00 66 1015.0
20260903075734 83 289 0.0 3.0 0.00 0.00 0.00 65 1014.8
20260903075229 83 248 1.0 3.0 0.00 0.00 0.00 65 1015.0
20260903074728 83 28 2.0 4.0 0.00 0.00 0.00 65 1015.1
20260903074223 83 232 1.0 3.0 0.00 0.00 0.00 64 1014.9
20260903073718 83 91 2.0 4.0 0.00 0.00 0.00 64 1015.1
20260903073213 83 232 1.0 1.0 0.00 0.00 0.00 64 1015.1
20260903072709 83 136 1.0 1.0 0.00 0.00 0.00 63 1015.0
20260903072206 83 244 2.0 4.0 0.00 0.00 0.00 63 1015.1
20260903071702 84 159 1.0 3.0 0.00 0.00 0.00 63 1015.0
20260903071157 84 242 2.0 3.0 0.00 0.00 0.00 63 1015.1
20260903070656 84 48 0.0 1.0 0.00 0.00 0.00 62 1015.2
20260903070152 84 59 2.0 3.0 0.00 0.00 0.00 62 1015.1
20260903065647 84 71 1.0 2.0 0.00 0.00 0.00 62 1015.0
20260903065147 84 135 0.0 4.0 0.00 0.00 0.00 61 1015.1
20260903064646 85 91 1.0 3.0 0.00 0.00 0.00 61 1014.9
20260903064141 85 214 3.0 7.0 0.00 0.00 0.00 60 1015.1
20260903063638 85 354 0.0 7.0 0.00 0.00 0.00 59 1015.1
20260903063138 85 245 2.0 6.0 0.00 0.00 0.00 59 1014.9
20260903062633 85 43 1.0 3.0 0.00 0.00 0.00 58 1015.0
20260903062129 86 354 1.0 10.0 0.00 0.00 0.00 58 1014.9
20260903061624 86 64 2.0 3.0 0.00 0.00 0.00 58 1015.0
20260903061123 86 137 2.0 3.0 0.00 0.00 0.00 58 1015.1
20260903060618 86 153 3.0 6.0 0.00 0.00 0.00 57 1015.0
20260903060114 86 46 1.0 8.0 0.00 0.00 0.00 57 1015.1
20260903055611 86 325 1.0 7.0 0.00 0.00 0.00 57 1014.8
20260903055109 86 139 1.0 3.0 0.00 0.00 0.00 57 1014.9
20260903054604 86 73 2.0 2.0 0.00 0.00 0.00 57 1015.0
20260903054100 87 104 2.0 6.0 0.00 0.00 0.00 57 1014.9
20260903053556 87 194 1.0 6.0 0.00 0.00 0.00 56 1014.9
20260903053052 87 61 2.0 6.0 0.00 0.00 0.00 56 1015.0
20260903052547 87 231 4.0 9.0 0.00 0.00 0.00 55 1014.8
20260903052043 87 271 2.0 4.0 0.00 0.00 0.00 54 1014.9
20260903051542 87 346 4.0 4.0 0.00 0.00 0.00 54 1014.8
20260903051038 87 11 3.0 7.0 0.00 0.00 0.00 54 1014.9
20260903050537 88 24 1.0 3.0 0.00 0.00 0.00 53 1014.8
20260903050033 88 76 2.0 2.0 0.00 0.00 0.00 53 1014.6
20260903045532 88 43 2.0 3.0 0.00 0.00 0.00 52 1014.8
20260903045029 88 234 0.0 3.0 0.00 0.00 0.00 52 1014.7
20260903044525 88 267 1.0 2.0 0.00 0.00 0.00 52 1014.8
20260903044020 88 107 0.0 3.0 0.00 0.00 0.00 51 1014.7
20260903043516 88 318 2.0 3.0 0.00 0.00 0.00 51 1014.7
20260903043015 89 144 2.0 4.0 0.00 0.00 0.00 50 1014.7
20260903042510 89 281 3.0 4.0 0.00 0.00 0.00 50 1014.8
20260903042006 89 52 2.0 3.0 0.00 0.00 0.00 50 1014.9
20260903041502 89 72 2.0 7.0 0.00 0.00 0.00 50 1014.8
20260903040958 89 138 2.0 3.0 0.00 0.00 0.00 50 1014.8
20260903040456 89 251 2.0 6.0 0.00 0.00 0.00 50 1014.7
20260903035953 89 284 1.0 4.0 0.00 0.00 0.00 49 1014.6
20260903035448 89 300 5.0 8.0 0.00 0.00 0.00 49 1014.7
20260903034943 89 230 2.0 3.0 0.00 0.00 0.00 49 1014.6
20260903034437 89 207 2.0 4.0 0.00 0.00 0.00 48 1014.9
20260903033933 90 302 5.0 7.0 0.00 0.00 0.00 48 1014.6
20260903033429 90 46 0.0 7.0 0.00 0.00 0.00 48 1014.6
20260903032929 90 52 4.0 6.0 0.00 0.00 0.00 47 1014.8
20260903032424 90 152 2.0 7.0 0.00 0.00 0.00 47 1014.8
20260903031919 90 211 0.0 3.0 0.00 0.00 0.00 47 1014.8
20260903031419 90 0 0.0 2.0 0.00 0.00 0.00 47 1014.6
20260903030914 90 241 0.0 4.0 0.00 0.00 0.00 46 1014.8
20260903030410 90 280 2.0 2.0 0.00 0.00 0.00 46 1014.7
20260903025906 91 253 1.0 4.0 0.00 0.00 0.00 46 1014.6
20260903025401 91 47 0.0 3.0 0.00 0.00 0.00 45 1014.8
20260903024856 91 43 3.0 4.0 0.00 0.00 0.00 45 1014.7
20260903024350 91 32 2.0 2.0 0.00 0.00 0.00 45 1014.7
20260903023845 91 302 2.0 2.0 0.00 0.00 0.00 45 1014.7
20260903023341 91 70 2.0 3.0 0.00 0.00 0.00 44 1014.6
20260903022836 91 303 3.0 4.0 0.00 0.00 0.00 44 1014.4
20260903022335 92 176 1.0 2.0 0.00 0.00 0.00 44 1014.4
20260903021834 92 74 2.0 4.0 0.00 0.00 0.00 44 1014.5
20260903021330 92 53 1.0 3.0 0.00 0.00 0.00 44 1014.3
20260903020830 92 104 2.0 4.0 0.00 0.00 0.00 44 1014.2
20260903020325 92 320 1.0 3.0 0.00 0.00 0.00 44 1014.2
20260903015819 92 224 0.0 4.0 0.00 0.00 0.00 44 1014.1
20260903015315 92 155 1.0 1.0 0.00 0.00 0.00 44 1014.1
20260903014810 92 56 0.0 1.0 0.00 0.00 0.00 44 1013.9
20260903014309 93 23 0.0 1.0 0.00 0.00 0.00 44 1014.0
20260903013804 93 250 1.0 4.0 0.00 0.00 0.00 43 1013.8
20260903013303 93 342 0.0 2.0 0.00 0.00 0.00 43 1013.8
20260903012803 94 226 0.0 2.0 0.00 0.00 0.00 43 1013.7
20260903012257 94 208 0.0 1.0 0.00 0.00 0.00 43 1013.7
20260903011752 94 273 1.0 2.0 0.00 0.00 0.00 42 1013.5
20260903011251 94 302 0.0 1.0 0.00 0.00 0.00 42 1013.7
20260903010746 94 168 0.0 2.0 0.00 0.00 0.00 42 1013.6
20260903010241 95 138 2.0 3.0 0.00 0.00 0.00 41 1013.5
20260903005740 95 34 1.0 2.0 0.00 0.00 0.00 41 1013.6
20260903005234 95 249 1.0 4.0 0.00 0.00 0.00 40 1013.4
20260903004725 95 27 1.0 2.0 0.00 0.00 0.00 40 1013.4
20260903004221 96 316 2.0 4.0 0.00 0.00 0.00 40 1013.5
20260903003715 96 22 1.0 2.0 0.00 0.00 0.00 40 1013.5
20260903003211 96 23 2.0 4.0 0.00 0.00 0.00 39 1013.4
20260903002706 96 46 2.0 4.0 0.00 0.00 0.00 39 1013.5
20260903002200 96 114 1.0 3.0 0.00 0.00 0.00 39 1013.3
20260903001655 97 215 1.0 4.0 0.00 0.00 0.00 39 1013.4